Temp_Advection
nan nan nan nan nan nan nan nan nan nan nan nan nan nan nan nan nan nan nan nan nan nan nan nan nan nan nan nan nan nan nan nan nan nan nan nan nan nan nan nan nan nan nan nan nan nan nan nan nan
nan -0 -1 -0 -0 -1 -1 -1 -1 -1 -0 -1 -1 -1 -2 -1 -0 0 -0 -0 -0 1 0 -0 -0 -0 -0 -0 -0 0 0 0 0 0 0 0 -0 -0 0 0 0 0 -0 -0 0 -0 -0 -0 nan
nan -0 -1 -0 -0 -1 -1 -0 -1 -0 -0 -1 -1 -2 -1 -1 -0 0 0 0 -0 0 0 0 -0 -0 -0 -0 -0 -0 0 0 0 0 -0 -0 0 -0 0 0 -0 0 0 0 -0 -0 -0 -0 nan
nan -0 -0 -0 -1 -2 -1 -0 -1 -0 -0 -1 -2 -1 -0 -0 -0 0 0 1 0 0 0 0 0 -0 -0 -0 -0 -0 0 0 0 0 -0 0 0 0 -0 0 0 -0 0 0 0 -0 -0 0 nan
nan -1 -0 -1 -1 -1 0 -0 -0 -0 -0 -0 -1 -1 -1 -0 0 0 0 0 0 0 0 0 0 0 -0 -0 -0 -0 -0 0 0 0 0 0 0 0 -0 0 0 -0 -0 -0 -0 -0 -0 -0 nan
nan -0 -0 -1 -2 -1 0 -0 -0 -0 -0 -0 -2 -1 -0 -0 -0 0 0 0 0 0 0 0 0 0 0 -0 -0 -0 -0 -0 0 -0 0 -0 -0 -0 -0 -0 -0 -0 -0 -0 -0 -0 -0 -0 nan
nan -0 -1 -1 -1 0 -0 0 -0 -1 -0 0 -1 -1 -0 0 -0 -0 0 0 0 0 0 1 0 0 0 0 -0 -0 0 0 0 -0 -0 -0 -0 -0 -0 -0 -0 -0 -0 -0 -0 -0 -0 -0 nan
nan -0 -1 -1 -1 -0 0 -0 0 -0 -0 -0 -1 -0 -0 0 -0 -0 0 0 0 0 0 0 0 0 0 0 0 -0 0 0 -0 -0 -0 -0 -0 -0 -0 -0 -0 -0 -0 -0 -0 -0 -0 -0 nan
nan -0 -0 -1 -1 0 -0 -0 0 -0 -1 0 -0 -1 -1 -0 -0 -0 0 0 0 0 0 0 0 0 0 0 0 -0 -0 0 -0 -0 -0 -0 -0 -0 -0 -0 -0 -0 -0 -0 -0 -0 -0 -0 nan
nan -0 -1 -2 -1 1 -1 -0 -0 -1 -1 -0 -1 -1 -1 -1 -0 -0 -0 -0 -0 -0 0 0 0 0 -0 0 0 -0 -0 -0 0 0 0 0 0 0 -0 -0 -0 -0 -0 -0 -0 -0 -0 -0 nan
nan -1 -1 -1 -1 0 1 3 3 0 1 -1 -1 -0 -1 -1 -1 -1 -1 -1 -0 -0 -0 0 0 0 0 0 -0 -0 -0 -0 0 0 0 0 0 0 -0 -0 -0 -0 -0 -0 -0 -0 -0 -0 nan
nan -1 -1 -1 -1 2 -1 -1 -2 -1 -1 2 -0 -0 -0 -0 -1 -0 -0 -1 -1 -0 -0 -0 -0 0 0 0 0 -0 -0 0 0 0 -0 0 -0 -0 -0 0 -0 -0 0 -0 -0 -0 -0 -0 nan
nan -0 -0 -1 -1 1 -2 -4 -2 3 -0 -0 2 0 0 1 0 0 1 0 0 -0 0 0 0 0 -0 0 0 0 0 -0 0 -0 0 0 0 0 -0 -0 -0 -0 0 -0 -0 0 -0 -0 nan
nan -0 -0 -1 0 0 -0 -1 -4 -2 1 0 1 1 1 0 0 0 0 0 1 1 0 0 0 0 0 0 0 0 0 0 -0 -0 0 0 0 0 -0 0 0 0 -0 -0 -0 -0 -0 -0 nan
nan 0 -0 0 0 0 0 2 -1 -3 -0 -0 0 0 0 0 0 0 0 0 0 0 0 0 0 0 0 0 0 -0 -0 -0 -0 -0 -0 -0 0 -0 -0 -0 -0 -0 -0 0 0 0 -0 -0 nan
nan 1 0 0 0 -0 1 2 -1 -1 -1 -1 -0 0 1 1 0 1 1 1 0 -0 -0 -0 0 0 0 -0 0 -0 -0 0 0 -0 -0 -0 -0 -0 -0 0 -0 -0 0 0 -0 -0 0 0 nan
nan 1 -1 0 -0 0 1 2 -2 -1 0 0 -0 -0 0 1 1 1 0 0 0 0 -1 -0 -0 0 0 0 0 -0 -0 -0 0 0 0 -0 -0 -0 -0 -0 -0 0 0 -0 -0 0 -0 -0 nan
nan -1 -0 -1 -0 1 0 1 -2 -1 -0 0 0 0 -0 0 0 0 0 0 0 0 1 1 0 -0 -0 0 0 0 -0 -0 -0 0 -0 -0 -0 -0 0 0 0 0 -0 -1 -0 0 0 0 nan
nan -1 -1 -1 -0 1 0 0 -0 0 -1 -0 0 -0 -0 -0 -1 -1 0 1 1 0 1 1 0 0 0 0 0 0 0 -0 -0 -0 0 -0 -0 -0 -0 -0 0 0 -0 -1 -1 0 0 0 nan
nan -0 -1 -1 0 0 -0 1 -3 -1 -1 -1 -1 -1 -1 -1 -1 -1 -0 0 0 0 0 -0 -0 0 1 0 0 0 0 0 0 0 -0 -0 -0 -0 -0 -0 0 0 0 -0 -1 -0 0 0 nan
nan -1 -1 -0 0 1 0 1 -3 -3 -1 -2 -2 -2 -1 -2 -1 -1 -1 -1 -0 0 0 0 0 1 1 -0 -0 0 0 0 0 0 0 -0 -0 0 -0 -0 -0 0 0 -0 -1 -1 -0 0 nan
nan -1 -0 0 0 0 0 0 -1 -1 -0 -0 -2 -1 -2 -1 -1 -1 -1 -1 -1 -0 0 0 1 1 0 0 0 0 0 0 -0 1 1 0 0 0 0 -0 0 -0 -0 -0 -0 -0 -0 -0 nan
nan -0 0 0 0 0 1 -0 0 -0 -0 -0 -1 -1 -1 -0 -1 -1 -1 -1 -1 -1 -0 0 0 0 0 0 0 -0 -0 -0 0 0 0 0 0 0 0 0 0 -0 -0 -0 0 0 0 -0 nan
nan 1 1 1 1 1 -0 0 0 -1 -1 -1 -0 -1 -0 -1 -1 -1 -1 -0 -0 -0 -0 0 0 -0 0 0 0 -0 -0 -0 0 0 0 0 0 0 0 0 0 0 -0 0 0 0 -0 -0 nan
nan 1 1 1 0 -0 -0 0 -0 -1 -2 -1 -0 -1 -0 -0 -1 -1 -1 -0 -0 -0 -0 -0 -0 -0 0 0 0 0 0 0 0 0 0 0 0 0 0 0 -0 0 0 0 0 -0 -0 -0 nan
nan 1 -0 -0 -1 -1 0 -0 -2 -1 -0 -0 -0 -0 -0 -0 -1 -0 -0 -0 -0 -0 0 -0 -0 -0 0 0 1 0 0 0 0 0 0 0 0 0 0 0 0 0 0 0 -0 -0 -0 -0 nan
nan -1 -0 -0 0 0 -0 -1 -1 -0 1 0 -0 -1 -0 0 -0 -0 -0 0 0 0 0 -0 -0 -0 -0 0 0 0 1 1 1 1 1 0 0 0 0 0 0 0 0 -0 -0 -0 -0 -0 nan
nan 0 1 0 0 -1 -1 0 0 0 0 0 0 -0 -1 -1 -0 -1 -0 0 0 0 0 0 0 0 -0 0 -0 0 1 1 1 0 1 0 0 0 -0 0 0 0 0 0 -0 -0 -0 -0 nan
nan 0 -0 1 0 0 -0 -1 -0 -0 0 0 0 -0 0 -0 -0 -0 -0 0 0 0 1 1 0 0 0 0 0 0 0 0 -0 0 -0 -0 0 0 0 0 0 0 0 0 -0 -0 -0 -0 nan
nan nan nan nan nan nan nan nan nan nan nan nan nan nan nan nan nan nan nan nan nan nan nan nan nan nan nan nan nan nan nan nan nan nan nan nan nan nan nan nan nan nan nan nan nan nan nan nan nan
Wind_Speed
9 4 7 10 6 7 15 19 22 9 9 15 29 23 22 22 8 12 19 18 16 18 17 16 14 14 14 15 15 13 11 11 10 10 10 10 10 10 10 10 9 9 9 10 9 9 10 10 11
9 4 10 10 9 11 12 14 13 20 19 22 17 17 24 17 17 22 20 18 13 16 18 17 16 15 15 14 13 13 11 9 8 8 8 8 9 10 9 9 8 9 9 9 9 9 9 9 9
8 5 12 7 11 14 13 18 19 18 17 18 14 19 10 18 16 14 20 17 14 19 13 17 16 15 14 12 11 10 9 7 6 6 6 7 8 8 9 8 8 7 7 7 7 7 7 7 6
6 7 12 9 18 21 21 12 15 16 13 13 21 12 10 10 9 18 20 18 21 17 14 16 15 14 13 11 10 8 7 6 6 5 6 6 6 7 8 7 7 6 6 6 6 6 6 5 5
13 13 11 14 19 21 2 13 13 9 7 6 14 12 11 12 15 22 19 20 20 15 14 16 16 14 12 10 9 8 7 6 6 5 6 6 6 6 7 7 6 6 5 5 5 5 6 6 6
16 18 13 15 20 21 10 10 15 12 9 10 19 18 9 14 18 21 18 19 16 14 14 18 16 13 10 9 8 7 6 5 5 5 5 6 6 6 6 6 6 6 6 6 6 6 6 7 7
18 13 17 21 19 19 14 14 13 20 14 7 20 9 16 16 18 21 19 16 18 15 12 17 15 13 10 8 7 6 6 5 5 6 6 6 6 6 5 5 6 6 6 7 7 8 9 9 8
23 13 22 19 18 21 19 16 13 16 15 15 18 9 14 24 19 22 19 20 17 17 11 11 13 12 10 8 6 5 5 5 5 6 7 9 8 8 7 6 5 6 6 7 7 7 7 6 5
25 14 15 22 22 21 23 15 14 17 22 14 14 16 28 28 25 24 19 18 16 15 14 12 13 8 8 9 7 5 5 5 7 8 10 8 7 8 5 8 5 4 5 5 6 5 5 6 7
20 14 22 21 21 21 23 20 21 21 24 14 18 28 30 29 22 20 18 17 15 14 14 14 14 11 9 9 10 9 8 4 6 7 5 1 3 3 4 7 5 5 6 5 6 5 3 6 6
28 18 20 27 31 26 19 20 23 16 18 29 25 30 27 30 26 22 19 17 14 12 13 12 12 11 9 8 7 10 10 5 1 4 3 3 3 1 0 5 6 11 10 9 8 8 8 9 6
23 26 29 28 30 23 7 5 10 15 9 35 33 28 29 26 22 19 20 23 26 22 17 16 16 14 12 14 14 15 12 10 2 3 3 4 5 4 4 5 5 2 1 4 6 6 8 7 5
23 20 28 32 26 15 24 21 28 14 35 34 26 29 26 27 23 23 22 19 17 17 13 14 14 14 14 15 13 10 5 2 2 3 4 5 6 6 5 6 6 5 6 5 3 7 4 5 9
21 23 26 27 16 11 12 8 13 20 14 35 31 28 26 24 22 18 15 15 12 15 13 11 10 8 7 4 4 4 2 1 3 5 6 6 7 3 0 2 4 5 5 2 2 2 2 8 7
25 18 19 15 13 14 23 16 13 29 29 29 28 26 23 22 21 19 18 18 16 13 12 11 10 9 7 6 4 3 3 3 1 4 2 2 2 3 3 4 3 1 1 3 3 11 1 4 7
18 14 18 14 17 24 22 14 17 33 28 26 25 25 24 24 24 23 24 22 20 16 13 12 12 11 10 7 6 5 9 4 3 4 4 4 3 2 2 2 4 5 3 4 9 14 3 4 6
18 15 21 19 20 16 14 15 21 28 27 25 25 25 24 23 23 19 22 22 18 12 11 14 13 12 11 9 7 7 6 5 3 1 4 5 5 4 4 4 5 6 4 9 12 11 6 12 11
19 21 18 20 20 16 15 12 21 26 24 21 23 25 24 24 22 22 25 28 22 17 23 20 18 16 17 15 11 9 5 1 1 4 4 3 4 6 5 7 5 5 7 10 10 12 10 11 11
20 20 22 22 18 21 17 17 17 14 22 19 22 23 23 22 20 20 21 22 19 16 18 17 16 16 15 15 11 10 5 3 3 4 4 4 3 3 5 7 7 8 9 11 14 10 2 5 11
23 22 22 18 20 19 19 20 23 22 24 27 26 24 23 23 27 23 22 21 19 20 21 20 18 17 17 14 11 8 4 3 3 4 3 2 3 4 5 8 8 9 10 11 12 12 10 14 5
23 22 19 22 20 22 17 20 24 31 32 32 26 25 25 29 32 26 25 24 20 19 21 19 18 18 19 18 14 11 10 6 6 4 2 3 4 5 6 7 9 10 11 12 11 12 11 13 15
19 22 19 16 16 12 15 12 22 20 16 18 26 27 31 30 30 29 28 27 25 21 18 18 19 20 17 11 11 11 12 14 13 11 12 11 10 8 7 8 8 9 9 10 11 11 10 9 12
18 17 17 16 17 14 20 13 17 26 23 21 24 28 31 32 32 31 30 28 25 21 20 17 18 19 17 14 11 14 11 9 5 8 12 14 14 12 11 9 8 10 11 11 11 11 11 12 13
16 15 16 15 12 12 17 15 17 16 18 20 24 32 30 35 33 30 28 27 25 25 23 24 21 19 17 16 15 14 13 12 12 12 13 13 11 11 10 9 9 10 10 11 11 11 11 12 11
14 15 9 11 11 9 17 17 10 17 24 26 21 31 34 33 35 33 31 29 28 28 29 27 24 22 18 18 18 16 15 12 12 14 15 15 13 12 11 10 10 10 10 10 10 10 11 12 12
17 16 7 18 13 10 14 18 16 14 15 26 30 32 34 32 34 33 32 31 30 30 31 28 26 25 22 19 18 16 13 13 14 14 15 15 13 12 12 11 10 10 9 9 9 9 10 11 11
20 18 17 11 14 12 13 15 18 5 13 4 28 34 34 34 34 36 33 32 31 32 29 30 28 25 22 20 18 16 15 15 17 16 16 15 15 14 13 11 10 9 9 9 9 8 9 9 9
20 15 15 10 7 15 13 18 12 10 6 13 13 19 37 40 37 36 35 34 31 31 29 29 28 27 25 21 20 18 18 18 18 18 18 16 16 14 12 11 10 9 8 8 7 8 8 9 9
17 16 14 11 10 7 7 11 4 20 13 11 14 18 23 39 40 37 36 35 32 30 31 31 29 27 26 24 20 19 21 21 21 20 18 18 16 15 13 12 10 9 8 8 7 7 7 7 8
21 19 17 7 19 11 4 6 7 5 9 14 16 23 21 31 40 39 36 37 35 33 31 32 30 30 28 25 23 22 23 23 22 22 19 18 17 16 13 12 11 9 8 7 6 5 5 6 7
Wind_Direction
263 312 332 280 246 231 256 248 252 96 81 66 56 85 76 41 24 122 127 117 127 135 145 133 124 118 116 116 112 109 106 103 96 87 81 78 79 86 92 91 92 92 90 85 82 82 82 82 78
249 223 249 264 242 247 244 260 65 70 89 83 70 94 70 67 84 121 119 123 135 141 147 138 130 125 123 121 121 115 113 103 94 87 81 77 78 84 92 94 93 91 87 82 81 80 77 77 76
244 184 255 233 238 249 269 35 78 86 101 97 93 59 61 106 100 128 135 132 129 141 150 142 135 132 129 127 123 120 116 111 102 91 81 78 76 78 85 91 91 88 85 82 78 75 76 76 72
249 227 247 257 246 233 248 82 83 94 99 112 94 84 86 73 109 140 139 142 141 157 164 147 142 139 135 132 129 126 123 114 103 91 84 76 73 74 79 84 86 85 80 73 65 58 55 50 43
232 258 237 242 243 264 245 110 107 107 106 117 120 104 104 94 121 135 147 144 159 166 165 156 148 144 140 136 131 127 124 115 98 79 66 67 70 69 70 70 71 70 63 57 49 39 32 27 21
226 226 251 237 249 241 149 123 137 132 119 132 97 114 102 134 135 141 151 156 170 171 173 161 152 148 142 132 125 117 112 104 87 68 60 56 57 59 62 59 56 55 54 48 42 34 25 15 11
238 236 236 251 253 246 141 152 160 137 151 174 136 112 136 143 145 145 148 143 152 164 170 157 156 147 142 130 119 111 107 102 87 69 61 58 50 44 45 47 47 41 38 36 34 30 26 22 17
229 248 254 245 259 262 153 161 173 154 146 155 137 150 162 158 144 156 140 159 145 153 170 155 151 153 151 137 122 112 107 101 87 72 59 45 43 19 14 5 31 34 28 24 21 19 23 16 13
225 244 243 247 245 262 136 168 170 149 132 157 170 153 154 155 148 155 154 147 145 144 148 151 130 144 146 138 116 106 103 88 84 66 60 37 29 338 31 2 357 1 1 2 1 13 17 357 357
228 226 238 244 252 255 157 181 165 152 152 135 100 124 143 151 153 156 149 150 154 152 151 147 156 147 99 112 87 56 73 87 123 153 140 169 176 252 344 340 350 340 339 344 358 12 2 344 5
222 235 230 248 256 265 183 186 154 186 169 153 140 139 149 156 155 149 154 154 155 150 147 152 146 130 122 137 95 132 141 155 210 133 150 175 229 178 158 32 12 3 349 331 341 328 333 314 327
224 222 244 239 246 260 120 76 349 261 43 146 142 146 151 155 149 152 153 143 148 150 154 151 151 146 151 155 172 175 185 216 257 25 335 331 305 293 290 276 305 339 265 353 345 353 8 349 328
225 224 226 246 261 253 154 154 172 177 117 107 133 148 154 149 148 135 145 136 151 164 181 187 175 168 168 180 186 175 163 122 297 306 293 288 292 300 330 343 345 327 273 260 294 288 344 306 304
219 223 244 231 240 263 244 194 117 47 72 131 155 150 151 138 139 135 137 129 164 185 189 166 167 166 172 171 142 125 117 271 278 282 276 274 279 305 29 228 229 236 283 307 253 6 48 312 329
230 215 237 223 219 233 231 221 143 130 156 163 144 140 144 150 149 144 149 159 165 173 168 164 162 168 171 151 163 127 109 80 284 319 342 337 316 91 105 263 251 35 36 115 69 86 42 86 13
237 225 222 201 215 226 228 218 135 158 152 150 141 149 153 150 152 155 159 163 168 160 155 164 167 173 171 170 180 150 124 126 77 9 37 49 69 117 183 358 64 62 27 85 88 98 251 267 198
226 207 227 205 203 211 216 234 146 181 153 150 151 153 147 162 165 159 166 168 167 159 167 175 175 168 156 155 146 134 132 122 118 38 52 65 65 60 41 61 92 87 55 105 105 113 75 53 60
196 220 211 220 197 199 199 207 143 151 152 161 162 159 162 171 174 178 178 172 179 186 198 189 179 175 160 154 151 131 135 137 105 45 59 50 89 92 59 77 83 92 90 94 107 137 142 147 132
205 208 220 213 179 197 203 199 154 165 161 182 186 181 182 186 184 183 185 186 195 190 189 193 186 189 176 159 149 121 113 81 38 72 51 55 79 120 115 107 92 87 93 98 90 69 99 137 147
236 207 220 239 191 189 202 215 156 178 200 189 192 189 188 182 181 179 183 185 199 197 200 203 198 191 189 172 160 151 147 138 99 56 68 85 112 129 133 116 109 100 93 96 107 91 36 72 106
228 238 216 223 232 184 203 218 175 182 183 185 190 185 190 187 173 176 179 180 185 186 185 191 193 198 206 218 221 210 199 177 157 160 121 152 138 130 127 124 119 100 96 97 105 112 100 67 65
221 232 246 218 170 180 209 218 225 162 183 190 181 187 187 185 172 178 180 182 183 189 191 185 183 181 191 189 165 171 183 180 182 170 151 156 157 149 137 120 105 100 93 91 97 101 91 90 84
225 222 235 240 208 200 196 225 249 172 189 186 180 189 184 181 177 182 185 184 182 188 197 193 195 190 187 190 178 183 197 196 186 177 165 160 149 140 131 129 121 108 102 94 89 90 86 82 82
213 231 217 247 249 205 213 220 239 187 182 194 188 180 191 179 177 184 186 184 183 185 191 188 187 186 188 187 188 202 205 205 194 174 161 151 148 145 130 124 122 116 107 102 93 85 84 83 80
216 223 187 216 226 229 199 238 209 232 194 192 192 183 190 184 178 184 180 183 184 183 185 186 181 184 188 192 194 200 201 193 180 177 167 163 158 148 143 140 126 118 109 104 102 97 87 84 77
222 222 205 205 215 216 225 220 237 221 205 184 185 190 187 185 182 181 183 185 184 183 186 183 179 185 184 191 191 195 191 187 180 175 170 165 166 159 148 140 129 123 117 110 98 93 86 78 73
206 222 230 222 228 224 218 226 226 276 200 184 178 182 189 186 183 179 185 186 184 181 184 182 180 186 183 185 189 187 178 178 167 175 167 175 172 162 154 145 137 130 122 112 103 89 81 78 69
236 207 223 227 213 230 238 222 211 172 197 172 185 196 188 185 184 179 184 183 182 186 186 186 182 187 182 187 193 186 171 168 179 178 176 179 170 170 161 149 144 136 128 119 111 97 84 71 59
221 232 211 232 237 235 237 247 278 180 185 196 188 206 207 185 178 182 179 179 182 186 188 187 182 187 185 190 189 183 178 177 187 175 182 179 178 173 168 164 155 147 137 127 114 98 80 66 53
221 223 208 200 221 231 242 254 25 108 192 195 222 194 210 175 177 175 174 177 178 184 188 189 183 188 191 193 185 187 184 189 183 180 185 183 178 175 170 166 162 157 146 132 118 91 81 59 45
Height
1499 1500 1500 1502 1505 1488 1483 1467 1446 1447 1454 1462 1467 1473 1489 1493 1491 1515 1518 1520 1521 1524 1529 1531 1534 1536 1538 1540 1541 1543 1545 1546 1547 1547 1548 1548 1549 1549 1549 1550 1551 1552 1552 1553 1554 1554 1555 1555 1556
1497 1498 1503 1498 1498 1492 1475 1451 1448 1452 1459 1467 1476 1483 1492 1504 1506 1512 1519 1524 1522 1525 1529 1532 1535 1537 1539 1541 1542 1544 1546 1547 1549 1550 1550 1550 1551 1551 1551 1552 1553 1554 1554 1555 1555 1556 1557 1557 1558
1496 1498 1500 1491 1487 1487 1470 1452 1454 1459 1465 1473 1483 1492 1499 1510 1514 1517 1521 1525 1527 1528 1530 1533 1536 1538 1540 1542 1544 1546 1547 1549 1550 1551 1552 1552 1553 1553 1553 1553 1554 1556 1556 1557 1557 1558 1558 1558 1559
1497 1497 1497 1488 1480 1463 1457 1453 1463 1468 1473 1479 1486 1501 1510 1512 1515 1518 1523 1525 1529 1529 1532 1534 1537 1539 1541 1543 1545 1547 1549 1550 1551 1552 1553 1554 1554 1555 1555 1555 1556 1557 1558 1558 1559 1559 1559 1560 1560
1495 1491 1486 1479 1472 1456 1451 1456 1464 1472 1479 1482 1487 1501 1510 1515 1517 1520 1524 1527 1530 1531 1534 1536 1538 1540 1542 1544 1546 1547 1549 1551 1553 1554 1555 1555 1556 1556 1556 1557 1557 1558 1559 1559 1560 1560 1560 1560 1561
1491 1487 1485 1479 1464 1450 1452 1459 1464 1471 1483 1487 1495 1502 1513 1516 1518 1522 1525 1528 1531 1533 1534 1536 1539 1541 1543 1545 1547 1549 1551 1553 1554 1555 1556 1557 1557 1558 1558 1558 1559 1559 1559 1560 1560 1561 1561 1561 1561
1484 1479 1478 1468 1459 1448 1452 1461 1463 1468 1481 1489 1495 1501 1513 1516 1517 1522 1525 1528 1531 1534 1536 1538 1540 1542 1545 1547 1549 1550 1552 1553 1555 1556 1557 1558 1559 1560 1560 1560 1560 1560 1560 1561 1561 1561 1562 1562 1562
1482 1476 1472 1463 1459 1451 1448 1460 1463 1465 1474 1484 1491 1500 1510 1514 1516 1520 1524 1528 1531 1535 1537 1539 1541 1543 1545 1547 1550 1551 1553 1554 1556 1557 1558 1560 1561 1561 1561 1561 1561 1561 1561 1561 1561 1561 1561 1561 1561
1478 1476 1473 1463 1457 1448 1451 1458 1463 1465 1474 1484 1489 1492 1501 1510 1516 1518 1523 1528 1532 1535 1539 1540 1543 1545 1546 1548 1550 1552 1554 1556 1556 1558 1560 1561 1561 1561 1561 1562 1562 1562 1562 1562 1562 1561 1561 1561 1561
1470 1469 1465 1456 1449 1443 1450 1454 1459 1467 1473 1485 1489 1494 1503 1510 1515 1519 1522 1527 1532 1535 1539 1542 1544 1546 1548 1550 1551 1553 1554 1557 1557 1557 1560 1560 1561 1562 1562 1563 1562 1562 1562 1563 1562 1562 1562 1561 1561
1464 1463 1460 1454 1447 1444 1445 1450 1453 1464 1466 1476 1491 1495 1503 1509 1516 1520 1525 1527 1532 1535 1540 1542 1545 1548 1551 1554 1555 1555 1554 1557 1556 1556 1558 1559 1561 1561 1562 1562 1562 1562 1563 1562 1562 1562 1562 1561 1561
1459 1460 1457 1451 1446 1444 1450 1457 1463 1467 1471 1470 1488 1498 1502 1508 1515 1521 1524 1527 1528 1533 1538 1541 1544 1548 1549 1552 1552 1552 1554 1556 1558 1558 1559 1560 1560 1561 1562 1562 1562 1561 1561 1562 1562 1561 1561 1561 1559
1452 1452 1453 1449 1447 1442 1447 1455 1470 1482 1466 1486 1487 1497 1507 1507 1514 1519 1522 1525 1529 1533 1539 1542 1545 1547 1549 1551 1553 1553 1555 1556 1558 1558 1558 1559 1558 1559 1559 1560 1560 1560 1559 1559 1560 1561 1562 1560 1558
1447 1449 1447 1445 1444 1445 1445 1452 1456 1483 1474 1480 1500 1497 1506 1507 1513 1519 1523 1526 1530 1534 1539 1542 1545 1548 1550 1553 1554 1554 1554 1555 1555 1556 1556 1557 1556 1558 1558 1558 1557 1557 1556 1556 1557 1559 1561 1559 1559
1444 1445 1444 1440 1445 1446 1447 1450 1460 1474 1492 1499 1497 1494 1503 1512 1516 1520 1524 1527 1530 1534 1539 1542 1545 1548 1550 1551 1553 1553 1554 1555 1554 1554 1555 1554 1555 1556 1557 1556 1556 1555 1555 1554 1556 1558 1561 1561 1559
1442 1442 1451 1442 1446 1446 1446 1457 1479 1477 1483 1490 1489 1498 1508 1512 1516 1520 1522 1525 1529 1531 1538 1542 1545 1548 1549 1549 1552 1553 1553 1555 1553 1553 1554 1554 1555 1555 1555 1555 1556 1555 1554 1554 1556 1558 1558 1560 1559
1440 1450 1446 1444 1441 1441 1445 1454 1468 1483 1483 1488 1493 1502 1508 1514 1516 1519 1521 1526 1529 1530 1532 1538 1545 1547 1547 1548 1552 1551 1552 1554 1552 1552 1553 1553 1554 1555 1555 1555 1555 1554 1554 1554 1555 1557 1558 1559 1559
1445 1448 1441 1442 1439 1441 1447 1456 1474 1482 1489 1496 1497 1501 1506 1510 1513 1517 1519 1522 1525 1527 1529 1534 1541 1545 1544 1547 1549 1549 1551 1553 1552 1551 1553 1553 1553 1555 1555 1555 1555 1554 1553 1555 1556 1556 1557 1557 1558
1434 1439 1436 1433 1430 1442 1444 1449 1470 1477 1479 1492 1496 1496 1500 1505 1511 1515 1518 1520 1524 1527 1530 1537 1540 1542 1544 1547 1549 1548 1550 1552 1553 1551 1551 1553 1554 1555 1556 1555 1556 1555 1554 1555 1557 1558 1559 1557 1557
1430 1430 1434 1426 1425 1438 1442 1446 1464 1469 1473 1479 1489 1491 1497 1502 1507 1513 1517 1520 1523 1525 1530 1532 1537 1539 1543 1546 1547 1544 1549 1550 1552 1551 1549 1553 1555 1556 1557 1556 1556 1555 1555 1553 1558 1559 1561 1556 1557
1429 1427 1424 1429 1419 1431 1436 1444 1452 1461 1467 1478 1484 1486 1494 1497 1502 1509 1514 1518 1521 1523 1526 1530 1534 1537 1543 1542 1544 1545 1548 1549 1551 1548 1548 1554 1556 1558 1558 1558 1557 1555 1555 1556 1558 1560 1560 1557 1558
1430 1419 1418 1419 1429 1448 1436 1456 1438 1450 1460 1467 1474 1479 1486 1493 1499 1507 1511 1515 1519 1522 1525 1529 1533 1537 1539 1539 1542 1546 1547 1547 1546 1548 1548 1553 1554 1559 1560 1559 1558 1557 1558 1558 1558 1560 1560 1559 1559
1421 1417 1419 1420 1424 1434 1437 1451 1435 1440 1454 1457 1460 1472 1478 1487 1494 1501 1506 1512 1517 1521 1523 1528 1531 1534 1537 1538 1541 1543 1545 1547 1547 1549 1552 1552 1552 1556 1557 1558 1560 1559 1559 1560 1561 1561 1560 1561 1562
1416 1420 1423 1424 1425 1444 1434 1440 1444 1442 1446 1449 1455 1464 1472 1481 1490 1498 1505 1510 1514 1519 1522 1526 1529 1533 1535 1537 1539 1542 1544 1546 1547 1550 1551 1553 1556 1557 1557 1559 1562 1560 1561 1561 1562 1563 1562 1561 1562
1416 1424 1443 1452 1447 1442 1430 1440 1433 1425 1433 1440 1446 1456 1465 1474 1483 1493 1499 1505 1510 1514 1519 1523 1527 1531 1533 1535 1538 1540 1542 1544 1546 1549 1551 1553 1555 1556 1558 1561 1561 1562 1563 1564 1563 1565 1564 1564 1563
1417 1419 1432 1450 1450 1441 1426 1438 1428 1417 1420 1427 1439 1451 1459 1467 1477 1487 1494 1501 1506 1511 1515 1520 1525 1528 1531 1534 1536 1538 1540 1542 1545 1548 1551 1552 1556 1558 1559 1560 1562 1563 1564 1565 1566 1566 1565 1564 1565
1417 1424 1414 1428 1427 1438 1425 1427 1417 1415 1419 1424 1431 1442 1453 1462 1470 1480 1489 1496 1502 1507 1512 1518 1522 1526 1529 1531 1534 1536 1539 1541 1544 1547 1550 1552 1555 1558 1559 1560 1562 1564 1564 1565 1567 1567 1567 1567 1566
1412 1411 1431 1427 1450 1449 1431 1422 1425 1421 1421 1424 1431 1437 1446 1453 1464 1473 1483 1491 1499 1504 1511 1516 1520 1522 1526 1529 1532 1534 1537 1541 1543 1546 1549 1551 1555 1557 1559 1560 1563 1564 1565 1565 1567 1568 1568 1567 1567
1410 1414 1415 1422 1430 1443 1444 1430 1401 1407 1415 1420 1427 1433 1439 1446 1456 1466 1476 1485 1495 1501 1506 1512 1517 1519 1522 1526 1529 1532 1535 1539 1541 1544 1547 1550 1553 1556 1558 1561 1563 1565 1566 1567 1567 1568 1568 1567 1567
1402 1407 1412 1436 1434 1427 1434 1435 1408 1410 1417 1420 1425 1429 1436 1441 1450 1460 1471 1480 1488 1496 1502 1508 1514 1516 1519 1523 1527 1530 1533 1536 1540 1543 1546 1549 1552 1556 1558 1560 1562 1565 1566 1566 1567 1567 1568 1567 1568